Location: Windsor
(43.2292°N, 89.3015°W)
Time: 21:16:03
(UTC+00:00)

CUBESAT XI-V - Visible Passes

Search period start: 27 June 2022 00:00
Search period end: 07 July 2022 00:00
Orbit: 666 x 692 km, 98.1° (Epoch: 27 June)

Date Brightness Start Highest point End Pass type
(mag) Time Alt. Az. Time Alt. Az. Time Alt. Az.
27 Jun ? 07:07:38 23° SE 07:10:03 42° ENE 07:14:23 10° N visible
27 Jun ? 08:46:01 18° WSW 08:47:29 21° W 08:50:57 10° NW visible
28 Jun ? 06:07:21 10° E 06:08:53 12° ENE 06:10:25 10° NE visible
28 Jun ? 07:43:35 36° S 07:45:28 86° WSW 07:50:06 10° NNW visible
29 Jun ? 06:41:08 14° ESE 06:43:59 24° ENE 06:47:40 10° NNE visible
29 Jun ? 08:19:32 29° SW 08:21:04 37° W 08:25:21 10° NNW visible
30 Jun ? 07:17:05 28° SE 07:19:17 52° ENE 07:23:44 10° N visible
30 Jun ? 08:55:29 15° WSW 08:56:51 17° W 08:59:47 10° NW visible
01 Jul ? 06:15:39 10° E 06:18:01 14° ENE 06:20:23 10° NNE visible
01 Jul ? 07:53:02 38° S 07:54:44 69° WSW 07:59:20 10° NNW visible
02 Jul ? 06:50:35 17° ESE 06:53:10 29° ENE 06:57:06 10° N visible
02 Jul ? 08:28:59 25° SW 08:30:23 30° W 08:34:25 10° NW visible
03 Jul ? 07:26:32 33° SE 07:28:30 64° ENE 07:33:03 10° N visible
03 Jul ? 09:04:56 12° WSW 09:06:12 13° W 09:08:25 10° WNW visible
04 Jul ? 06:24:14 10° ESE 06:27:09 17° ENE 06:30:05 10° NNE visible
04 Jul ? 08:02:30 37° SSW 08:04:01 55° W 08:08:31 10° NNW visible
05 Jul ? 07:00:03 22° ESE 07:02:21 35° ENE 07:06:30 10° N visible
05 Jul ? 08:38:27 22° WSW 08:39:41 24° W 08:43:25 10° NW visible
06 Jul ? 07:36:00 38° SSE 07:37:43 80° ENE 07:42:19 10° N visible
06 Jul ? 09:14:44 10° W 09:15:34 10° W 09:16:23 10° WNW visible
